カタログに戻る

STARLINK-32620

運用中通信VLEO
NORAD 61928·PAYLOAD·🇺🇸 United States

打ち上げ Nov 11, 2024 から Cape Canaveral Space Force Station

Loading…

次のパス (今後24時間)

TLE

最新Source: CelesTrak SupGP

元期: Sep 15, 2026, 02:34 UTC

1 61928C 24207S   26258.10743056  .00020634  00000+0  74727-3 0  2582
2 61928  42.9999 292.0129 0001347 262.8209   2.3280 15.27572116    12

AllMySatでSTARLINK-32620をリアルタイム追跡

Download on the App Store